User: anonymous   Login
Location: Cincinnati Observatory Center
(39.1389°N, 84.4225°W)
Time: 19:03:50
(UTC-04:00)
Language:

Hubble Space Telescope - Orbit

View from above orbital plane
View from above orbital plane
View from above satellite
View from above satellite

Ground track
Ground track

The orbit data is extracted from the following two-line orbital elements,

1 20580U 90037B   16209.18179398  .00000642  00000-0  28989-4 0  9990
2 20580  28.4709 354.5931 0002597 280.2631  71.8199 15.08436029241158
Epoch (UTC): 27 July 2016 04:21:47
Eccentricity: 0.0002597
inclination: 28.4709°
perigee height: 539 km
apogee height: 543 km
right ascension of ascending node: 354.5931°
argument of perigee: 280.2631°
revolutions per day: 15.08436029
mean anomaly at epoch: 71.8199°
orbit number at epoch: 24115

The dashed part of the orbit path shows where the satellite is in the earth's shadow,  

DLR